Weather History for KLSE - February, 2014

Change the Weather History Date:

Wednesday, February 19, 2014

  Actual Average Record
Temperature  
Mean Temperature 28 °F 24 °F  
Max Temperature 42 °F 33 °F 59 °F (1930)
Min Temperature 14 °F 15 °F -20 °F (1929)
Degree Days  
Heating Degree Days 37 41  
Month to date heating degree days 1063 838  
Since 1 July heating degree days 5710 5157  
Cooling Degree Days 0 0  
Month to date cooling degree days 0 0  
Year to date cooling degree days 0 0  
Moisture  
Dew Point 20 °F    
Average Humidity 73    
Maximum Humidity 92    
Minimum Humidity 54    
Precipitation  
Precipitation 0.00 in 0.04 in 0.96 in (2002)
Month to date precipitation 0.53 0.67  
Year to date precipitation 1.51 1.79  
Snow  
Snow 0.00 in 0.30 in 7.30 in (1917)
Month to date snowfall 7.8 5.7  
Since 1 July snowfall 37.2 32.0  
Snow Depth 16.00 in    
Sea Level Pressure  
Sea Level Pressure 29.84 in    
Wind  
Wind Speed 7 mph (SSE)    
Max Wind Speed 17 mph    
Max Gust Speed 19 mph    
Visibility 5 miles    
Events Fog    
T = Trace of Precipitation, MM = Missing Value Source: NWS Daily Summary

Daily Weather History Graph

Daily Weather History Graph

Search for Another Location

Airport or City:

Trip Planner

Search our weather history database for the weather conditions in past years. The results will help you decide how hot, cold, wet, or windy it might be!

Date:

Astronomy

Feb. 19, 2014 Rise Set
Actual Time 6:57 AM CST 5:40 PM CST
Civil Twilight 6:28 AM CST 6:09 PM CST
Nautical Twilight 5:55 AM CST 6:43 PM CST
Astronomical Twilight 5:21 AM CST 7:16 PM CST
Moon 10:45 PM CST (2/19) 8:53 AM CST (2/19)
Length of Visible Light 11h 41m
Length of Day
10h 42m
Waning Gibbous, 79% of the Moon is Illuminated
Feb 19
Waning Gibbous
Feb 22
Last Quarter
Mar 1
New
Mar 8
First Quarter
Mar 16
Full

Hourly Weather History & Observations

Time (CST) Temp. Windchill Dew Point Humidity Pressure Visibility Wind Dir Wind Speed Gust Speed Precip Events Conditions
12:53 AM 30.0 °F - 23.0 °F 75% 29.76 in 10.0 mi Calm Calm - N/A   Clear
1:53 AM 26.1 °F - 21.0 °F 81% 29.78 in 10.0 mi Calm Calm - N/A   Clear
2:53 AM 21.0 °F - 19.0 °F 92% 29.81 in 9.0 mi Calm Calm - N/A   Clear
3:12 AM 24.1 °F - 21.0 °F 88% 29.77 in 3.0 mi Calm Calm - N/A   Partly Cloudy
3:32 AM 21.0 °F 14.6 °F 19.0 °F 92% 29.78 in 1.0 mi NNW 4.6 mph - N/A   Mist
3:38 AM 18.0 °F - 16.0 °F 92% 29.78 in 0.2 mi Calm Calm - N/A Fog Light Freezing Fog
3:53 AM 19.9 °F - 18.0 °F 92% 29.82 in 0.5 mi Calm Calm - N/A Fog Light Freezing Fog
3:58 AM 23.0 °F - 19.9 °F 88% 29.79 in 1.8 mi Calm Calm - N/A   Partly Cloudy
4:05 AM 17.1 °F - 17.1 °F 100% 29.79 in 4.0 mi Calm Calm - N/A   Clear
4:07 AM 17.1 °F 11.7 °F 16.0 °F 96% 29.79 in 1.0 mi South 3.5 mph - N/A   Mist
4:14 AM 17.1 °F - 15.1 °F 92% 29.79 in 0.5 mi Calm Calm - N/A Fog Light Freezing Fog
4:23 AM 17.1 °F - 16.0 °F 96% 29.79 in 0.5 mi Calm Calm - N/A Fog Light Freezing Fog
4:44 AM 18.0 °F - 17.1 °F 96% 29.80 in 1.0 mi Calm Calm - N/A   Clear
4:51 AM 15.8 °F 10.2 °F 15.8 °F 100% 29.80 in 0.5 mi SE 3.5 mph - N/A Fog Light Freezing Fog
4:53 AM 18.0 °F 11.1 °F 15.1 °F 88% 29.85 in 0.8 mi SSE 4.6 mph - N/A   Clear
4:56 AM 18.0 °F 12.7 °F 16.0 °F 92% 29.81 in 2.0 mi SSE 3.5 mph - N/A   Clear
5:01 AM 18.0 °F 12.7 °F 16.0 °F 92% 29.80 in 0.8 mi SSE 3.5 mph - N/A   Clear
5:12 AM 16.0 °F 8.8 °F 15.1 °F 96% 29.80 in 0.8 mi SE 4.6 mph - N/A   Mist
5:21 AM 17.1 °F 11.7 °F 15.1 °F 92% 29.81 in 1.8 mi SSE 3.5 mph - N/A   Clear
5:28 AM 15.1 °F - 14.0 °F 95% 29.81 in 3.0 mi Calm Calm - N/A   Clear
5:53 AM 15.1 °F 9.4 °F 12.9 °F 91% 29.86 in 1.2 mi South 3.5 mph - N/A   Clear
6:02 AM 17.1 °F 11.7 °F 16.0 °F 96% 29.82 in 4.0 mi South 3.5 mph - N/A   Clear
6:28 AM 18.0 °F 11.1 °F 15.1 °F 88% 29.83 in 0.8 mi South 4.6 mph - N/A   Clear
6:37 AM 19.0 °F 12.3 °F 16.0 °F 88% 29.83 in 2.0 mi South 4.6 mph - N/A   Clear
6:44 AM 16.0 °F 8.8 °F 12.9 °F 88% 29.83 in 6.0 mi SSE 4.6 mph - N/A   Clear
6:53 AM 15.1 °F 7.7 °F 12.0 °F 88% 29.88 in 6.0 mi SE 4.6 mph - N/A   Clear
7:29 AM 19.9 °F 14.9 °F 17.1 °F 89% 29.85 in 1.0 mi ESE 3.5 mph - N/A   Clear
7:38 AM 19.9 °F 14.9 °F 18.0 °F 92% 29.85 in 3.0 mi SSE 3.5 mph - N/A   Clear
7:53 AM 21.0 °F 16.2 °F 18.0 °F 88% 29.89 in 7.0 mi South 3.5 mph - N/A   Clear
8:53 AM 25.0 °F 17.1 °F 21.0 °F 85% 29.89 in 10.0 mi South 6.9 mph - N/A   Clear
9:53 AM 28.0 °F 20.0 °F 21.9 °F 78% 29.91 in 10.0 mi South 8.1 mph - N/A   Clear
10:53 AM 33.1 °F 26.1 °F 23.0 °F 66% 29.91 in 10.0 mi SSE 8.1 mph - N/A   Clear
11:53 AM 37.0 °F 30.4 °F 26.1 °F 65% 29.91 in 10.0 mi South 9.2 mph - N/A   Clear
12:53 PM 39.0 °F 33.4 °F 25.0 °F 57% 29.88 in 10.0 mi South 8.1 mph - N/A   Clear
1:53 PM 41.0 °F 35.2 °F 26.1 °F 55% 29.88 in 10.0 mi South 9.2 mph - N/A   Clear
2:53 PM 42.1 °F 34.9 °F 28.9 °F 60% 29.89 in 10.0 mi South 13.8 mph - N/A   Clear
3:53 PM 41.0 °F 32.8 °F 30.0 °F 65% 29.90 in 10.0 mi SSW 16.1 mph - N/A   Clear
4:53 PM 39.9 °F 32.1 °F 28.9 °F 65% 29.89 in 10.0 mi SSW 13.8 mph - N/A   Clear
5:53 PM 39.0 °F 32.3 °F 28.9 °F 67% 29.88 in 10.0 mi South 10.4 mph - N/A   Clear
6:53 PM 36.0 °F 30.3 °F 28.0 °F 73% 29.88 in 10.0 mi South 6.9 mph - N/A   Clear
7:53 PM 34.0 °F 28.8 °F 28.0 °F 79% 29.86 in 10.0 mi South 5.8 mph - N/A   Clear
8:53 PM 33.1 °F 26.1 °F 26.1 °F 75% 29.86 in 10.0 mi South 8.1 mph - N/A   Clear
9:53 PM 34.0 °F 26.6 °F 26.1 °F 73% 29.86 in 10.0 mi SSE 9.2 mph - N/A   Clear
10:53 PM 35.1 °F 31.0 °F 24.1 °F 64% 29.85 in 10.0 mi SSE 4.6 mph - N/A   Clear
11:53 PM 34.0 °F 26.0 °F 24.1 °F 67% 29.81 in 10.0 mi SSE 10.4 mph - N/A   Clear